Пасвалис

Литва     56°03′55″N   24°23′59″E
темп.,
°C
ветер,
м/с
пор.,
м/с
влажн.,
%
обл.,
%
осадки,
мм/ч
давл.,
гПа
погр.,
м
16 апреля, пт
пт1600:00+5ссв61385100 0.3 1021792
03:00+6св61282100 0.8 1019664
06:00+6св51283100 0.2 1019612
09:00+6св61281100 0.2 1019615
12:00+10св71273100 0.0 1019775
15:00+10всв7117699 0.3 1019890
18:00+10всв6128296 0.0 1019696
21:00+10св41083100 0.0 1020400
17 апреля, сб
сб1700:00+10св51183100 0.0 1020442
03:00+9св51184100 0.0 1020509
06:00+7св5129091 0.0 1020437
09:00+9всв5985100 0.0 1022491
12:00+10всв578187 0.1 1022572
15:00+11всв567675 0.1 1023750
18:00+12всв577499 0.0 1023986
21:00+10всв3879100 0.0 1024269
18 апреля, вс
вс1800:00+9св4108383 0.0 1024276
03:00+8св3987100 0.0 1023185
06:00+9св498563 0.0 1023291
09:00+9всв587585 0.0 1023393
12:00+13всв575742 0.0 1023874
15:00+15всв674731 0.0 10231375
18:00+15всв46521 0.0 10221396
21:00+10всв496824 0.0 1023146
19 апреля, пн
пн1900:00+10вюв2477100 0.0 1024108
03:00+9в2478100 0.0 102484
06:00+9всв2479100 0.0 1023101
09:00+9всв2576100 0.0 1023221
12:00+13всв57515 0.0 10231749
15:00+14всв574694 0.0 10212202
18:00+11в596397 0.0 1021940
21:00+8всв377486 0.0 1021228
20 апреля, вт
вт2000:00+8св498058 0.0 1020357
03:00+5всв389420 0.0 1019226
06:00+6св4891100 0.1 1018352
09:00+7св5885100 0.1 1016540
12:00+8св5784100 0.1 10151107
15:00+8св5782100 0.1 1013876
18:00+9ссв4775100 0.1 1011914
21:00+8с4977100 0.1 1010331